[[{"header":{"parameterUnit":"m.s-1","parameterCategory":1,"la1":30.2991,"la2":30.254,"lo1":-89.0895,"lo2":-89.0444,"dy":0.0017,"dx":0.0017,"nx":28,"ny":28,"refTime":"2023-08-06T03:00:00:Z","depth":0,"parameterNumber":2,"parameterNumberName":"U-component_of_WINDS"},"data":[0,0,0,0,0,0,0,0,0,0,0,0,0,0,0,0,0,0,0,0,0,0,0,0,0,0,0,0,0,0,0,0,0,0,0,0,0,0,0,0,0,0,0,0,0,0,0,0,0,0,0,0,0,0,0,0,0,0,5.5356,5.5358,0,5.5521,5.5523,5.5525,5.5466,5.5462,5.5459,5.5455,5.5625,5.5632,5.564,0,0,0,0,0,0,0,0,0,0,0,0,0,5.4989,5.4996,5.5356,5.5358,5.536,5.5521,5.5523,5.5526,5.5467,5.5462,5.5458,5.5453,5.5622,5.5631,5.5641,0,0,0,0,0,0,0,0,0,0,0,0,0,5.5151,5.4999,5.5356,5.535,5.5352,5.5521,5.5523,5.5526,5.5468,5.5462,5.5457,5.5451,5.5619,5.5631,5.5642,5.5827,0,0,5.5679,5.5684,0,0,0,0,0,0,0,0,5.5142,5.5164,5.5349,5.5351,5.5353,5.5467,5.5456,5.5627,5.5469,5.5424,5.5455,5.5449,5.5577,5.5592,5.5635,5.5835,5.5842,5.568,5.5687,5.5692,5.5696,0,0,0,0,0,0,0,5.5131,5.5157,5.5422,5.5352,5.5354,5.5339,5.5356,5.5488,5.5529,5.5427,5.5423,5.5444,5.5577,5.5624,5.5639,5.5844,5.5679,5.569,5.5697,5.5702,5.62,5.6206,0,0,0,0,0,0,5.5119,5.5148,5.5416,5.5426,5.5231,5.535,5.5369,5.5436,5.5528,5.5536,5.5448,5.544,5.5606,5.5625,5.5644,5.5863,5.5692,5.5703,5.571,5.6194,5.6202,5.6208,0,0,0,0,0,0,5.5111,5.5143,5.541,5.5286,5.5319,5.5363,5.5438,5.5442,5.5489,5.5544,5.555,5.5488,5.5602,5.5627,5.5781,5.5869,5.5709,5.5719,5.6187,5.6197,5.6205,5.6305,0,0,0,0,0,0,5.5101,5.5141,5.5212,5.5288,5.5326,5.5544,5.5444,5.545,5.551,5.5501,5.5583,5.5592,5.56,5.5764,5.5793,5.5882,5.5729,5.6179,5.6191,5.6202,5.6294,5.6317,5.6336,0,0,0,0,0,5.5088,5.5234,5.5216,5.5248,5.5416,5.5549,5.5571,5.5577,5.5517,5.5588,5.5623,5.5589,5.5855,5.578,5.5812,5.5907,5.6174,5.6188,5.6201,5.6285,5.6312,5.6335,0,0,0,0,0,0,5.5168,5.5244,5.5224,5.54,5.5469,5.5539,5.5629,5.5607,5.5694,5.5682,5.5687,5.5706,5.5863,5.5901,5.5816,5.6088,5.6005,5.6026,5.6058,5.6084,5.6104,5.6091,5.5739,0,0,0,0,0,5.5205,5.5308,5.537,5.5518,5.5554,5.5586,5.5644,5.5643,5.5715,5.5743,5.5789,5.586,5.5958,5.6024,5.6118,5.63,5.6315,5.6381,5.6401,5.6418,5.6435,5.6531,5.656,5.6253,5.6253,5.6253,0,0,5.5285,5.5339,5.5404,5.5536,5.5589,5.5694,5.5611,5.5726,5.5804,5.5761,5.5908,5.5944,5.6023,5.619,5.6267,5.6226,5.6524,5.6436,5.6449,5.6457,5.6548,5.6577,5.6603,5.6263,5.6261,5.6259,0,0,5.5482,5.5536,5.5664,5.5718,5.5799,5.5819,5.585,5.5924,5.5946,5.6093,5.6063,5.6155,5.6327,5.6383,5.6434,5.6652,5.6623,5.6683,5.679,5.6884,5.6908,5.6929,5.7004,5.7031,5.67,5.67,5.6701,0,5.5571,5.5728,5.5733,5.585,5.5907,5.5873,5.6002,5.6055,5.6163,5.6203,5.6157,5.6369,5.642,5.6599,5.6652,5.6696,5.6729,5.6672,5.6904,5.6925,5.6945,5.7016,5.7045,5.6707,5.6706,5.6705,5.6705,0,5.5831,5.5941,5.6035,5.6138,5.6207,5.633,5.6352,5.6421,5.6414,5.6438,5.6588,5.6648,5.6752,5.6795,5.679,5.6973,5.6945,5.6902,5.6818,5.6981,5.7048,5.7075,5.6716,5.6714,5.6712,5.671,0,0,5.6083,5.6187,5.6221,5.6266,5.6352,5.6437,5.6557,5.6659,5.6716,5.6792,5.6892,5.7037,5.6997,5.7055,5.7056,5.7138,5.7302,5.7084,5.7086,5.712,5.7504,5.7534,5.7565,5.7285,5.729,5.7294,5.7496,0,5.6286,5.6496,5.6503,5.6696,5.6795,5.6764,5.6868,5.6932,5.6958,5.7046,5.7075,5.7176,5.7117,5.7152,5.7232,5.7266,5.7379,5.7251,5.7376,5.738,5.7354,5.7601,5.7633,5.7821,5.7523,5.7527,5.7531,0,5.655,5.6632,5.6834,5.6903,5.6945,5.7039,5.7131,5.7217,5.7287,5.73,5.7365,5.7353,5.7475,5.7389,5.7555,5.7468,5.752,5.7544,5.7551,5.7561,5.7463,5.7614,5.7882,5.7908,5.7572,5.7569,5.7566,0,5.6709,5.6871,5.7012,5.7052,5.7137,5.7203,5.7242,5.7308,5.7367,5.7448,5.7486,5.7581,5.7632,5.7705,5.7719,5.7656,5.7885,5.7801,5.7898,5.7897,5.7945,5.7942,5.8222,5.7984,5.7983,5.7983,5.7982,0,5.6933,5.7057,5.7084,5.717,5.7308,5.7314,5.745,5.7484,5.7542,5.7634,5.7613,5.77,5.7713,5.7803,5.7815,5.7949,5.7974,5.7986,5.7987,5.7986,5.7984,5.8018,5.8004,5.799,5.7989,5.7987,5.7986,0,5.7134,5.7157,5.7308,5.7376,5.7396,5.7494,5.7551,5.7633,5.7657,5.7773,5.78,5.7838,5.7941,5.7963,5.8087,5.8094,5.8253,5.8243,5.8229,5.8227,5.8321,5.831,5.863,5.8671,5.8409,5.8412,5.8414,0,5.7273,5.7368,5.7445,5.7504,5.7546,5.7642,5.7702,5.7713,5.7776,5.7863,5.7934,5.8036,5.8117,5.8284,5.8322,5.8416,5.8406,5.8511,5.8419,5.8415,5.8403,5.8396,5.8404,5.8528,5.8531,5.8533,5.8535,0,5.7518,5.7524,5.7612,5.7703,5.7775,5.7848,5.7917,5.7967,5.7986,5.8058,5.8163,5.8227,5.8352,5.8452,5.8545,5.8584,5.8562,5.8564,5.859,5.8589,5.8575,5.858,5.8273,5.8556,5.8554,5.8552,5.8551,5.855,5.769,5.7771,5.7837,5.7935,5.7988,5.8052,5.8131,5.8164,5.8252,5.8354,5.8355,5.8469,5.8536,5.8659,5.8704,5.8793,5.8759,5.8799,5.8809,5.8817,5.8824,5.8564,5.881,5.881,5.8809,5.8809,5.8808,0,5.793,5.7971,5.8061,5.8157,5.8233,5.8206,5.8281,5.8346,5.8447,5.8511,5.8591,5.871,5.8807,5.8852,5.8947,5.901,5.9002,5.9034,5.9028,5.9036,5.8851,5.8816,5.9038,5.9038,5.9038,5.9038,5.9038,5.9038,5.8064,5.8199,5.8213,5.8373,5.8413,5.8524,5.8568,5.8627,5.8678,5.8812,5.8892,5.892,5.8976,5.9075,5.9162,5.9172,5.9207,5.9243,5.9249,5.9074,5.905,5.9028,5.8995,5.9251,5.9252,5.9427,5.9428,5.943]},{"header":{"parameterUnit":"m.s-1","parameterCategory":1,"la1":30.2991,"la2":30.254,"lo1":-89.0895,"lo2":-89.0444,"dy":0.0017,"dx":0.0017,"nx":28,"ny":28,"refTime":"2023-08-06T03:00:00:Z","depth":0,"parameterNumber":3,"parameterNumberName":"V-component_of_WINDS"},"data":[0,0,0,0,0,0,0,0,0,0,0,0,0,0,0,0,0,0,0,0,0,0,0,0,0,0,0,0,0,0,0,0,0,0,0,0,0,0,0,0,0,0,0,0,0,0,0,0,0,0,0,0,0,0,0,0,0,0,1.5894,1.5895,0,1.596,1.5961,1.5962,1.5946,1.5944,1.5943,1.5942,1.6011,1.6014,1.6017,0,0,0,0,0,0,0,0,0,0,0,0,0,1.5754,1.5756,1.5894,1.5895,1.5896,1.596,1.5961,1.5962,1.5946,1.5944,1.5943,1.5941,1.601,1.6014,1.6017,0,0,0,0,0,0,0,0,0,0,0,0,0,1.5817,1.5757,1.5894,1.5895,1.5896,1.596,1.5961,1.5962,1.5946,1.5944,1.5942,1.5941,1.6009,1.6013,1.6018,1.6085,0,0,1.6032,1.6034,0,0,0,0,0,0,0,0,1.5813,1.5822,1.5894,1.5895,1.5896,1.5943,1.5937,1.6003,1.5947,1.5927,1.5942,1.594,1.599,1.5996,1.6013,1.6088,1.6091,1.6032,1.6035,1.6037,1.6038,0,0,0,0,0,0,0,1.5809,1.5819,1.592,1.5895,1.5897,1.5893,1.59,1.5949,1.5969,1.5929,1.5928,1.5936,1.599,1.6008,1.6014,1.6092,1.6032,1.6036,1.6039,1.6041,1.6223,1.6225,0,0,0,0,0,0,1.5804,1.5815,1.5918,1.5922,1.5849,1.5897,1.5904,1.593,1.5968,1.5972,1.5937,1.5935,1.6001,1.6009,1.6016,1.6097,1.6037,1.6041,1.6044,1.6221,1.6224,1.6226,0,0,0,0,0,0,1.5801,1.5813,1.5916,1.5869,1.5881,1.5901,1.593,1.5932,1.595,1.5975,1.5978,1.5952,1.6,1.601,1.6067,1.6099,1.6043,1.6047,1.6219,1.6222,1.6225,1.6258,0,0,0,0,0,0,1.5797,1.5812,1.5838,1.5869,1.5884,1.5966,1.5932,1.5935,1.5958,1.5955,1.599,1.5993,1.5999,1.6061,1.6072,1.6104,1.6051,1.6216,1.622,1.6224,1.6254,1.6262,1.6268,0,0,0,0,0,1.5792,1.5845,1.5839,1.5852,1.5917,1.5967,1.5976,1.5981,1.5961,1.5987,1.6002,1.5992,1.6093,1.6067,1.6079,1.6113,1.6214,1.6219,1.6224,1.6251,1.626,1.6268,0,0,0,0,0,0,1.5818,1.5849,1.5843,1.5908,1.5935,1.5965,1.5998,1.5991,1.6025,1.6021,1.6027,1.6035,1.6093,1.6109,1.6078,1.6179,1.6151,1.6158,1.6167,1.6176,1.6183,1.6178,1.6055,0,0,0,0,0,1.583,1.5869,1.5895,1.5949,1.5963,1.5978,1.6,1.6002,1.603,1.6042,1.6061,1.609,1.6127,1.6152,1.6189,1.6256,1.6263,1.6285,1.6292,1.6298,1.6305,1.634,1.635,1.6242,1.6242,1.6242,0,0,1.5858,1.588,1.5905,1.5955,1.5976,1.6016,1.5988,1.6031,1.6061,1.6049,1.6104,1.6119,1.615,1.6212,1.6241,1.6227,1.6336,1.6304,1.6308,1.6312,1.6346,1.6356,1.6365,1.6245,1.6245,1.6244,0,0,1.5929,1.595,1.5997,1.6019,1.605,1.606,1.6071,1.6101,1.611,1.6165,1.6157,1.6192,1.6257,1.628,1.63,1.6377,1.6369,1.6388,1.6426,1.6461,1.6469,1.6477,1.6504,1.6514,1.6395,1.6395,1.6395,0,1.596,1.6019,1.6023,1.6067,1.6089,1.6078,1.6126,1.6147,1.6189,1.6205,1.6189,1.6269,1.629,1.6357,1.6375,1.6392,1.6405,1.6385,1.6468,1.6475,1.6482,1.6508,1.6519,1.6397,1.6397,1.6396,1.6396,0,1.6055,1.6096,1.6131,1.6171,1.6197,1.6243,1.6253,1.6278,1.6277,1.6288,1.6343,1.6367,1.6408,1.6423,1.6423,1.649,1.648,1.6466,1.6438,1.6495,1.6519,1.6529,1.64,1.6399,1.6399,1.6398,0,0,1.6147,1.6186,1.6199,1.6216,1.625,1.6282,1.6326,1.6365,1.6387,1.6415,1.6453,1.6507,1.6494,1.6516,1.6518,1.6548,1.6607,1.653,1.6531,1.6544,1.6681,1.6693,1.6704,1.6602,1.6604,1.6605,1.6679,0,1.6221,1.6299,1.6302,1.6374,1.6411,1.6401,1.6439,1.6464,1.6475,1.6508,1.6519,1.6558,1.6537,1.655,1.658,1.6594,1.6635,1.6588,1.6637,1.6638,1.663,1.6717,1.6729,1.6798,1.6688,1.669,1.6691,0,1.6318,1.6349,1.6424,1.645,1.6466,1.6501,1.6536,1.6568,1.6595,1.66,1.6624,1.6621,1.6667,1.6636,1.6698,1.6666,1.6685,1.6695,1.6698,1.6703,1.6669,1.6725,1.682,1.683,1.6706,1.6705,1.6704,0,1.6377,1.6437,1.6489,1.6504,1.6537,1.6561,1.6576,1.6601,1.6624,1.6654,1.6669,1.6704,1.6724,1.6751,1.6757,1.6734,1.6819,1.6789,1.6825,1.6825,1.6844,1.6843,1.6944,1.6856,1.6856,1.6856,1.6856,0,1.6459,1.6506,1.6516,1.6548,1.6599,1.6602,1.6653,1.6666,1.6687,1.6722,1.6715,1.6747,1.6753,1.6787,1.6792,1.6842,1.6851,1.6857,1.6858,1.6858,1.6857,1.6871,1.6867,1.6858,1.6858,1.6857,1.6857,0,1.6535,1.6543,1.6599,1.6625,1.6632,1.6669,1.669,1.6721,1.673,1.6773,1.6783,1.6798,1.6837,1.6845,1.6892,1.6895,1.6955,1.6951,1.6946,1.6945,1.6981,1.6977,1.7095,1.711,1.7012,1.7013,1.7014,0,1.6587,1.6622,1.6651,1.6673,1.6688,1.6724,1.6747,1.675,1.6774,1.6806,1.6833,1.6871,1.6902,1.6964,1.6979,1.7014,1.7011,1.7049,1.7016,1.7015,1.7012,1.701,1.7013,1.7056,1.7057,1.7058,1.7059,0,1.668,1.6681,1.6714,1.6748,1.6775,1.6802,1.6827,1.6846,1.6853,1.688,1.6919,1.6942,1.6989,1.7027,1.7061,1.7076,1.7069,1.7069,1.7079,1.708,1.7075,1.7078,1.6963,1.7067,1.7066,1.7065,1.7065,1.7065,1.6745,1.6775,1.68,1.6836,1.6855,1.6879,1.6908,1.692,1.6953,1.6991,1.6991,1.7034,1.7058,1.7104,1.7121,1.7154,1.7142,1.7157,1.7161,1.7164,1.7168,1.7069,1.716,1.716,1.716,1.716,1.7159,0,1.6837,1.6852,1.6885,1.692,1.6948,1.6938,1.6965,1.6989,1.7027,1.705,1.708,1.7124,1.716,1.7177,1.7212,1.7235,1.7233,1.7245,1.7243,1.7247,1.7176,1.7164,1.7246,1.7246,1.7246,1.7246,1.7246,1.7246,1.6888,1.6939,1.6943,1.7003,1.7017,1.7059,1.7075,1.7096,1.7115,1.7165,1.7194,1.7204,1.7225,1.7261,1.7293,1.7297,1.731,1.7324,1.7326,1.726,1.7252,1.7243,1.7232,1.7327,1.7327,1.7394,1.7394,1.7395]}]]